BAW84W EGKK-EGNT

Flight info

Callsign BAW84W
Flight time 0h 47m
Altitude 34000
Route LAM L10 BPK UN601 LESTA UY250 RIMTO
Aircraft A20N/M-SDE2E3FGHIRWXY/LB1

Departure

Time 2026-04-17 12:22
Airport London Gatwick Airport (EGKK)

Arrival

Time 2026-04-17 13:09
Airport Newcastle International Airport (EGNT)
Time Latitude Longitude Altitude Speed Heading
2026-04-17 11:59 51.15854 -0.17431 207 ft 0 kts 348°
2026-04-17 11:59 51.15853 -0.17430 207 ft 0 kts 347°
2026-04-17 12:12 51.15841 -0.17426 217 ft 4 kts 347°
2026-04-17 12:13 51.15814 -0.17417 210 ft 4 kts 347°
2026-04-17 12:13 51.15789 -0.17406 207 ft 4 kts 326°
2026-04-17 12:13 51.15779 -0.17381 207 ft 2 kts 258°
2026-04-17 12:13 51.15783 -0.17350 213 ft 2 kts 257°
2026-04-17 12:14 51.15783 -0.17348 213 ft 0 kts 257°
2026-04-17 12:17 51.15780 -0.17368 207 ft 4 kts 257°
2026-04-17 12:17 51.15772 -0.17430 217 ft 8 kts 257°
2026-04-17 12:17 51.15733 -0.17493 210 ft 10 kts 186°
2026-04-17 12:18 51.15659 -0.17476 207 ft 12 kts 167°
2026-04-17 12:18 51.15567 -0.17444 212 ft 15 kts 167°
2026-04-17 12:18 51.15456 -0.17406 210 ft 18 kts 168°
2026-04-17 12:18 51.15342 -0.17367 210 ft 14 kts 167°
2026-04-17 12:19 51.15253 -0.17317 213 ft 13 kts 136°
2026-04-17 12:19 51.15243 -0.17252 207 ft 5 kts 78°
2026-04-17 12:19 51.15254 -0.17173 207 ft 9 kts 78°
2026-04-17 12:19 51.15270 -0.17055 210 ft 13 kts 77°
2026-04-17 12:20 51.15290 -0.16904 216 ft 13 kts 85°
2026-04-17 12:20 51.15281 -0.16834 211 ft 3 kts 118°
2026-04-17 12:20 51.15259 -0.16810 219 ft 6 kts 165°
2026-04-17 12:20 51.15166 -0.16792 212 ft 16 kts 180°
2026-04-17 12:21 51.15106 -0.16903 209 ft 13 kts 259°
2026-04-17 12:21 51.15088 -0.17055 215 ft 15 kts 259°
2026-04-17 12:21 51.15016 -0.17561 215 ft 92 kts 257°
2026-04-17 12:21 51.14817 -0.18983 273 ft 162 kts 254°
2026-04-17 12:22 51.14555 -0.20852 949 ft 173 kts 254°
2026-04-17 12:22 51.14292 -0.22731 2073 ft 185 kts 255°
2026-04-17 12:22 51.14009 -0.24873 2963 ft 208 kts 255°
2026-04-17 12:22 51.13777 -0.27165 3621 ft 211 kts 264°
2026-04-17 12:23 51.14027 -0.29502 4185 ft 224 kts 290°
2026-04-17 12:23 51.15064 -0.31434 5403 ft 238 kts 322°
2026-04-17 12:23 51.16639 -0.32213 6882 ft 243 kts 356°
2026-04-17 12:23 51.18278 -0.31465 8148 ft 255 kts 32°
2026-04-17 12:24 51.19419 -0.29273 9292 ft 266 kts 68°
2026-04-17 12:24 51.19882 -0.26380 10378 ft 273 kts 83°
2026-04-17 12:24 51.20160 -0.23349 11464 ft 279 kts 84°
2026-04-17 12:24 51.20457 -0.20254 12584 ft 287 kts 83°
2026-04-17 12:25 51.20823 -0.16990 13329 ft 312 kts 82°
2026-04-17 12:25 51.21256 -0.13463 14020 ft 338 kts 81°
2026-04-17 12:25 51.21743 -0.09643 14561 ft 363 kts 81°
2026-04-17 12:25 51.22264 -0.05629 15438 ft 375 kts 80°
2026-04-17 12:26 51.22801 -0.01509 16455 ft 383 kts 81°
2026-04-17 12:26 51.23345 0.02670 17358 ft 387 kts 81°
2026-04-17 12:26 51.23894 0.06910 18351 ft 394 kts 81°
2026-04-17 12:26 51.24452 0.11228 19164 ft 401 kts 81°
2026-04-17 12:27 51.25018 0.15628 19955 ft 408 kts 81°
2026-04-17 12:27 51.25595 0.20093 20765 ft 415 kts 79°
2026-04-17 12:27 51.26545 0.24482 21579 ft 424 kts 63°
2026-04-17 12:27 51.28329 0.28257 22410 ft 430 kts 42°
2026-04-17 12:28 51.30806 0.30918 23261 ft 431 kts 21°
2026-04-17 12:28 51.33674 0.32150 24330 ft 426 kts
2026-04-17 12:28 51.36624 0.32014 24980 ft 425 kts 348°
2026-04-17 12:28 51.39566 0.31451 25644 ft 428 kts 346°
2026-04-17 12:29 51.42444 0.30344 26296 ft 423 kts 334°
2026-04-17 12:29 51.45171 0.28589 26960 ft 424 kts 330°
2026-04-17 12:29 51.47886 0.26687 27596 ft 428 kts 329°
2026-04-17 12:29 51.50626 0.24768 28204 ft 432 kts 330°
2026-04-17 12:30 51.53396 0.22849 28793 ft 436 kts 330°
2026-04-17 12:30 51.56202 0.20919 29392 ft 440 kts 330°
2026-04-17 12:30 51.59032 0.18979 29968 ft 444 kts 329°
2026-04-17 12:30 51.61758 0.16805 30488 ft 441 kts 322°
2026-04-17 12:31 51.64228 0.13989 31147 ft 430 kts 312°
2026-04-17 12:31 51.66292 0.10610 31874 ft 417 kts 302°
2026-04-17 12:31 51.68028 0.06924 32583 ft 411 kts 298°
2026-04-17 12:31 51.69628 0.03137 33246 ft 407 kts 296°
2026-04-17 12:32 51.71151 -0.00687 33811 ft 405 kts 295°
2026-04-17 12:32 51.72652 -0.04545 34067 ft 407 kts 295°
2026-04-17 12:32 51.74327 -0.08259 34086 ft 413 kts 303°
2026-04-17 12:32 51.76404 -0.11539 34082 ft 424 kts 313°
2026-04-17 12:33 51.78826 -0.14319 34086 ft 430 kts 319°
2026-04-17 12:33 51.83946 -0.19405 34132 ft 433 kts 321°
2026-04-17 12:34 51.89168 -0.24280 34125 ft 433 kts 322°
2026-04-17 12:34 51.94375 -0.29176 34129 ft 433 kts 321°
2026-04-17 12:35 51.99563 -0.34127 34132 ft 432 kts 321°
2026-04-17 12:35 52.04738 -0.39108 34155 ft 432 kts 321°
2026-04-17 12:37 52.25410 -0.59145 34119 ft 433 kts 321°
2026-04-17 12:38 52.30578 -0.64186 34118 ft 432 kts 320°
2026-04-17 12:38 52.35737 -0.69231 34109 ft 432 kts 320°
2026-04-17 12:39 52.40891 -0.74288 34103 ft 432 kts 320°
2026-04-17 12:39 52.46048 -0.79361 34100 ft 432 kts 320°
2026-04-17 12:40 52.51198 -0.84440 34101 ft 432 kts 320°
2026-04-17 12:40 52.56346 -0.89532 34099 ft 432 kts 320°
2026-04-17 12:41 52.61495 -0.94640 34088 ft 432 kts 320°
2026-04-17 12:41 52.66637 -0.99754 34083 ft 432 kts 320°
2026-04-17 12:42 52.71782 -1.04821 34079 ft 440 kts 322°
2026-04-17 12:42 52.74622 -1.06865 34078 ft 452 kts 332°
2026-04-17 12:42 52.77686 -1.08234 34090 ft 459 kts 338°
2026-04-17 12:43 52.83977 -1.10358 34083 ft 463 kts 341°
2026-04-17 12:43 52.90332 -1.12221 34073 ft 464 kts 341°
2026-04-17 12:44 52.96686 -1.14088 34071 ft 463 kts 341°
2026-04-17 12:44 53.03029 -1.16004 34080 ft 464 kts 340°
2026-04-17 12:45 53.09380 -1.17953 34068 ft 464 kts 340°
2026-04-17 12:45 53.15734 -1.19913 34053 ft 464 kts 340°
2026-04-17 12:46 53.22086 -1.21876 34053 ft 464 kts 340°
2026-04-17 12:46 53.28442 -1.23845 34043 ft 465 kts 340°
2026-04-17 12:47 53.34812 -1.25825 34038 ft 466 kts 340°
2026-04-17 12:47 53.41197 -1.27742 34032 ft 471 kts 345°
2026-04-17 12:48 53.47746 -1.28759 34034 ft 474 kts 347°
2026-04-17 12:48 53.54324 -1.29587 34023 ft 473 kts 346°
2026-04-17 12:49 53.59518 -1.31582 34023 ft 451 kts 328°
2026-04-17 12:49 53.64988 -1.36320 34022 ft 438 kts 319°
2026-04-17 12:50 53.70193 -1.41629 34022 ft 437 kts 318°
2026-04-17 12:50 53.75389 -1.46958 34028 ft 437 kts 317°
2026-04-17 12:51 53.80603 -1.52293 34021 ft 439 kts 317°
2026-04-17 12:51 53.85836 -1.57654 33990 ft 445 kts 317°
2026-04-17 12:51 53.88506 -1.60408 33300 ft 452 kts 317°
2026-04-17 12:52 53.91219 -1.63203 32176 ft 461 kts 318°
2026-04-17 12:52 53.93980 -1.66047 31122 ft 467 kts 319°
2026-04-17 12:52 53.96769 -1.68917 30147 ft 470 kts 319°
2026-04-17 12:52 53.99574 -1.71805 29078 ft 472 kts 320°
2026-04-17 12:53 54.02374 -1.74689 28146 ft 469 kts 320°
2026-04-17 12:53 54.05148 -1.77545 27380 ft 463 kts 320°
2026-04-17 12:53 54.07889 -1.80375 26617 ft 459 kts 320°
2026-04-17 12:53 54.10603 -1.83175 25902 ft 454 kts 321°
2026-04-17 12:54 54.13506 -1.85412 25124 ft 465 kts 336°
2026-04-17 12:54 54.16734 -1.86199 24451 ft 474 kts 355°
2026-04-17 12:54 54.20023 -1.85526 23770 ft 477 kts
2026-04-17 12:54 54.23254 -1.84327 23031 ft 472 kts
2026-04-17 12:55 54.26449 -1.83134 22236 ft 467 kts
2026-04-17 12:55 54.29613 -1.82014 21419 ft 462 kts
2026-04-17 12:55 54.32747 -1.80956 20716 ft 456 kts
2026-04-17 12:55 54.35849 -1.79938 19950 ft 452 kts
2026-04-17 12:56 54.38918 -1.78948 19193 ft 447 kts
2026-04-17 12:56 54.41964 -1.77975 18501 ft 443 kts
2026-04-17 12:56 54.44973 -1.77016 17710 ft 438 kts
2026-04-17 12:56 54.47939 -1.76072 16989 ft 431 kts
2026-04-17 12:57 54.50872 -1.75139 16251 ft 426 kts
2026-04-17 12:57 54.53769 -1.74217 15557 ft 420 kts
2026-04-17 12:57 54.56631 -1.73305 14886 ft 416 kts
2026-04-17 12:57 54.59426 -1.72410 14689 ft 398 kts
2026-04-17 12:58 54.62069 -1.71560 14693 ft 375 kts
2026-04-17 12:58 54.64557 -1.70759 14697 ft 353 kts
2026-04-17 12:58 54.66902 -1.70005 14706 ft 333 kts
2026-04-17 12:58 54.69124 -1.69284 14700 ft 317 kts
2026-04-17 12:59 54.71236 -1.68297 14397 ft 316 kts 14°
2026-04-17 12:59 54.73340 -1.67104 13922 ft 320 kts 15°
2026-04-17 12:59 54.75444 -1.65864 13585 ft 317 kts 16°
2026-04-17 12:59 54.77523 -1.64633 13185 ft 316 kts 15°
2026-04-17 13:00 54.79600 -1.63406 12767 ft 315 kts 15°
2026-04-17 13:00 54.81670 -1.62186 12344 ft 313 kts 16°
2026-04-17 13:00 54.83684 -1.60997 12055 ft 307 kts 16°
2026-04-17 13:00 54.85708 -1.59804 11632 ft 308 kts 16°
2026-04-17 13:01 54.87735 -1.58610 11248 ft 307 kts 16°
2026-04-17 13:01 54.89753 -1.57420 10916 ft 305 kts 16°
2026-04-17 13:01 54.91761 -1.56233 10573 ft 304 kts 16°
2026-04-17 13:01 54.93764 -1.55049 10242 ft 303 kts 16°
2026-04-17 13:02 54.95755 -1.53870 9889 ft 302 kts 16°
2026-04-17 13:02 54.97739 -1.52695 9510 ft 300 kts 16°
2026-04-17 13:02 54.99705 -1.51528 9121 ft 298 kts 16°
2026-04-17 13:02 55.01666 -1.50365 8703 ft 297 kts 16°
2026-04-17 13:03 55.03628 -1.49200 8122 ft 302 kts 16°
2026-04-17 13:03 55.05655 -1.47999 7349 ft 313 kts 16°
2026-04-17 13:03 55.07751 -1.46754 6525 ft 324 kts 16°
2026-04-17 13:03 55.09915 -1.45501 5589 ft 331 kts 12°
2026-04-17 13:04 55.12191 -1.45309 4610 ft 328 kts 344°
2026-04-17 13:04 55.14221 -1.46922 3513 ft 320 kts 316°
2026-04-17 13:04 55.15511 -1.49949 2618 ft 305 kts 285°
2026-04-17 13:04 55.15704 -1.53430 2144 ft 276 kts 253°
2026-04-17 13:05 55.14846 -1.56128 2013 ft 241 kts 219°
2026-04-17 13:05 55.13410 -1.57146 1995 ft 217 kts 182°
2026-04-17 13:05 55.11982 -1.56763 2017 ft 198 kts 169°
2026-04-17 13:05 55.10756 -1.56063 2018 ft 172 kts 163°
2026-04-17 13:06 55.09780 -1.55213 2004 ft 143 kts 158°
2026-04-17 13:06 55.08981 -1.54466 1998 ft 118 kts 168°
2026-04-17 13:06 55.08268 -1.54645 1957 ft 105 kts 213°
2026-04-17 13:06 55.07742 -1.55534 1821 ft 106 kts 222°
2026-04-17 13:07 55.07273 -1.56534 1672 ft 107 kts 223°
2026-04-17 13:07 55.06864 -1.57656 1526 ft 112 kts 233°
2026-04-17 13:07 55.06514 -1.58881 1371 ft 112 kts 235°
2026-04-17 13:07 55.06167 -1.60100 1218 ft 112 kts 235°
2026-04-17 13:08 55.05839 -1.61294 1073 ft 105 kts 236°
2026-04-17 13:08 55.05522 -1.62458 917 ft 109 kts 237°
2026-04-17 13:08 55.05202 -1.63679 777 ft 112 kts 238°
2026-04-17 13:08 55.04872 -1.64914 628 ft 112 kts 242°
2026-04-17 13:09 55.04544 -1.66153 469 ft 114 kts 240°
2026-04-17 13:09 55.04208 -1.67418 319 ft 115 kts 241°
2026-04-17 13:09 55.03892 -1.68605 253 ft 89 kts 244°
2026-04-17 13:09 55.03739 -1.69169 257 ft 31 kts 244°
2026-04-17 13:10 55.03648 -1.69515 261 ft 32 kts 245°
2026-04-17 13:10 55.03577 -1.69848 264 ft 19 kts 273°
2026-04-17 13:10 55.03584 -1.70091 266 ft 21 kts 275°
2026-04-17 13:10 55.03587 -1.70141 267 ft 0 kts 276°
2026-04-17 13:11 55.03587 -1.70143 267 ft 0 kts 276°
2026-04-17 13:11 55.03587 -1.70148 267 ft 1 kts 276°
2026-04-17 13:11 55.03591 -1.70204 268 ft 8 kts 276°
2026-04-17 13:11 55.03598 -1.70320 270 ft 11 kts 275°
2026-04-17 13:12 55.03633 -1.70433 270 ft 13 kts 339°
2026-04-17 13:12 55.03799 -1.70548 270 ft 16 kts 276°
2026-04-17 13:12 55.03801 -1.70644 270 ft 3 kts 254°
2026-04-17 13:13 55.03779 -1.70663 270 ft 5 kts 195°
2026-04-17 13:13 55.03750 -1.70669 270 ft 5 kts 183°
2026-04-17 13:13 55.03729 -1.70671 270 ft 0 kts 184°